STARLINK-1672, 46537

Orbit data source: Space-Track

STARLINK-1672, 46537 is a payload satellite owned by SpaceX/Seattle (US) in LEO that was launched on Tue, 06 Oct 2020 UTC via an FALCON 9 launch vehicle from the Air Force Eastern Test Range (AFETR). Payloads include a variety of satellites, spacecraft, and rockets equipped with specific instruments for various scientific and technological missions. These include communications satellites like Starlink; space stations such as the ISS; scientific satellites like the Hubble; Earth observation satellites from companies like Planet Labs, Umbra, and HawkEye 360; GPS; miniature CubeSats for education and research; and military/defense satellites.

Loading next visibility...
STARLINK-1672 details
Identifier
46537, 2020-070F
Orbit
LEO
Last TLE update12 hours ago
Origin
Flag of USSpaceX/Seattle (US)
ManufacturerSpaceX/Seattle
MissionOperational Commercial Communications
Bus & MotorSTARLINK, Unknown motor
Mass260 kg wet, ~248 kg dry
Launch date (UTC)
2020-10-06 (4 years ago)
Launch vehicle
FALCON 9
Launch site
Air Force Eastern Test Range (AFETR)
Object type
Payload
Rocket body
Debris
Shape & HBRBox + 1 Pan, 8.86 m
Radar Cross Section13.562 m², Large (>1 m²)

Expand to show TLE details & history

TLE from 12 hours ago
0 STARLINK-1672
1 46537U 20070F   24361.27078028  .00021037  00000-0  14264-2 0  9996
2 46537  53.0556 344.7562 0001468  97.3023 262.8133 15.06415390233428
Epoch: 2024-12-26T06:29Z
Definitive object data (Epoch: 2024-12-26T06:29:55.416Z)
Latitude
Longitude152.02272°
Altitude548.171 km
Speed7.589 km/s
True Right ascension22h 59m 01s
True Declination0° 00' 00"
Sunlit
Object was in daylight at TLE epoch
Visualization TLE readout
Latitude-41.70456°
Longitude11.53802°
Altitude561.709 km
Speed7.58 km/s
Apparent Right ascension10h 00m 26s
Apparent Declination-57° 21' 52"
Sunlit
Object is in daylight
Visualization observer readout
Local Sidereal Time18:03:49
Azimuth224.664° SW
Elevation-48.801°
Doppler factor1
Orbital elements
Apogee altitude548.452 km
Perigee altitude546.418 km
Semi-major axis6,925.572 km
Eccentricity0.0001468
Inclination53.0556°
RAAN344.7562°
Arg. of periapsis97.3023°
True anomaly262.79661°
Mean anomaly262.8133°
Eccentric anomaly262.80496°
Mean motion3.76582 °/min
BSTAR0.0014264
Orbital period95.6 mins
Loading maneuver chart data...
Loading historical data...
Loading historical data...
Loading historical data...
Loading historical data...
Loading historical data...
Loading historical data...
Loading historical data...

STARLINK-1672 Visibility forecast

Observer location: undefined°, undefined

Span
Click to sort rows by Start time (UTC) header in descending order
Start Az.
Max El. time (UTC)
Max El. Az.
Max El.
End time (UTC)
End Az.
7 mins2024-12-27 01:47:17.222Z224.306° SW2024-12-27 01:50:17.222Z131.869° SE44.621°2024-12-27 01:54:17.222Z52.125° ENE
5 mins2024-12-27 03:28:17.222Z300.11° NW2024-12-27 03:30:17.222Z339.581° N20.815°2024-12-27 03:33:17.222Z28.62° NE
4 mins2024-12-27 06:50:17.222Z352.278° N2024-12-27 06:51:17.222Z10.663° NNE18.38°2024-12-27 06:54:17.222Z62.966° ENE
6 mins2024-12-27 08:29:17.222Z314.142° NW2024-12-27 08:32:17.222Z102.729° ESE42.495°2024-12-27 08:35:17.222Z125.781° SE
|